Home   Weather   Koudougou   Past weeks
Flag for Burkina Faso

Past Weather in Koudougou, Burkina Faso — Yesterday and Last 2 Weeks

Now
81 °F

Scattered clouds.


Feels Like: 86 °F
Forecast: N/A
Wind: 8 mph from West

Location: Ouagadougou Airport

Current Time: Aug 25, 2019 at 4:38:45 pm

Latest Report: Aug 25, 2019 at 3:00 pm


Visibility: N/A

Pressure: 29.86 "Hg

Humidity: 84%

Dew Point: 75 °F

Location of KoudougouLocation

Past Weather in Koudougou — Graph

°F

Koudougou Temperature Yesterday

Maximum temperature yesterday: 86 °F (at 12:00 pm)
Minimum temperature yesterday: 72 °F (at 3:00 am)
Average temperature yesterday: 77 °F

High & Low Weather Summary for the Past Weeks

 TemperatureHumidityPressure
High91 °F (Aug 12, 4:00 pm)100% (Aug 14, 4:00 pm)30.01 "Hg (Aug 14, 4:00 pm)
Low72 °F (Aug 19, 6:00 pm)52% (Aug 12, 4:00 pm)29.80 "Hg (Aug 13, 6:00 pm)
Average79 °F85%29.90 "Hg
* Reported Aug 10 3:00 pm — Aug 25 3:00 pm, Koudougou. Weather by CustomWeather, © 2019

Note: Actual official high and low records may vary slightly from our data, if they occured in-between our weather recording intervals... More about our weather records

Advertising

Koudougou Weather History for the Previous 24 Hours

Scroll right to see more
 ConditionsComfort  
Time TempWeatherWind HumidityBarometerVisibility
3:00 pm
Sun, Aug 25
81 °FScattered clouds.8 mph84%29.86 "HgN/A
2:00 pm82 °FPartly sunny.9 mph74%29.89 "HgN/A
1:00 pm84 °FPartly sunny.12 mph70%29.89 "HgN/A
12:00 pm82 °FPartly sunny.12 mph74%29.92 "HgN/A
11:00 am81 °FPartly sunny.14 mph79%29.95 "HgN/A
9:00 am75 °FPartly sunny.13 mph94%29.95 "HgN/A
8:00 am73 °FLight rain. Partly sunny.13 mph100%29.95 "Hg5 mi
7:00 am73 °FLight rain. Partly sunny.9 mph100%29.92 "Hg5 mi
6:00 am73 °FLight rain. Partly sunny.10 mph100%29.89 "Hg5 mi
3:00 am73 °FThunderstorms. Passing clouds.6 mph100%29.89 "Hg5 mi
2:00 am73 °FThunderstorms. Passing clouds.3 mph100%29.89 "Hg5 mi
12:00 am75 °FPassing clouds.9 mph100%29.92 "HgN/A
10:00 pm
Sat, Aug 24
77 °FPassing clouds.10 mph94%29.92 "HgN/A
9:00 pm77 °FPassing clouds.7 mph94%29.92 "HgN/A
8:00 pm77 °FPassing clouds.9 mph89%29.89 "HgN/A
7:00 pm77 °FPassing clouds.2 mph100%29.86 "HgN/A
6:00 pm79 °FPassing clouds.6 mph94%29.86 "HgN/A
5:00 pm79 °FScattered clouds.6 mph94%29.86 "HgN/A
4:00 pm79 °FScattered clouds.6 mph94%29.86 "HgN/A
Weather by CustomWeather, © 2019

See weather overview